Content
SEND FEEDBACK

Daily
Averages
Monthly
Summary
Germany

REGENSBERG, GERMANY


Home > Europe > Germany
Elevation: 1113 feet     Latitude: 49 02N     Longitude: 012 04E

WEATHER
 
SELECT A DAY
Number of Records: 74,839;   Date Range: 7/3/96 - 7/20/14
 
SHARE

PRINT THIS DATA

[ ← Previous Day ]
WEATHER ALMANAC - FEBRUARY 13, 2013
[ Next Day → ]
[ °C ]   °F
Weather ElementAverageHighLow
Temperature27.2 °F30.2 °F (11:40 am)24.8 °F (12:23 am)
Dewpoint22.9 °F24.8 °F (5:16 pm)21.2 °F (12:23 am)
Humidity83.9 %93 % (2:42 am)74 % (6:23 pm)
Barometer30.14 in30.36 in (9:58 pm)29.93 in (12:23 am)
Wind Speed2.2 mph4.6 mph (10:31 am)
Weather ElementAverage
Visibility5.5 mi
Wind DirectionSSE (158 °)

Weather ElementTotal
Precipitation---
Heating Degree Days37.5 (Base 65)
Averaged from 92 records on February 13, 2013
WEATHER CONDITIONS BREAKOUT
WIND DIRECTION BREAKOUT
WEATHER BY HOUR - FEBRUARY 13, 2013
[ °C ]   °F
Local TimeTemperatureDewpointHumidityBarometerVisibilityWind DirectionWind SpeedGust SpeedPrecipitationEventsConditions
12:23 AM24.8 °F21.2 °F86 %29.93 in6.2 miWNW (290°)3.5 mphMostly Cloudy
12:25 AM24.8 °F21.2 °F86 %29.93 in6.2 miWNW (300°)3.5 mphMostly Cloudy
12:30 AM24.8 °F21.2 °F86 %29.94 in6.2 miWNW (300°)2.3 mphMostly Cloudy
12:58 AM25.2 °F21.7 °F87 %30.04 in6.2 miNNW (330°)1.2 mphOvercast
1:06 AM24.8 °F21.2 °F86 %29.95 in5.6 miNW (320°)2.3 mphOvercast
1:58 AM25.3 °F22.3 °F88 %30.06 in5.0 miWest (280°)2.3 mphSnowLight Snow
2:42 AM24.8 °F23.0 °F93 %29.97 in5.6 miWest (280°)3.5 mphSnowLight Snow
2:43 AM24.8 °F23.0 °F93 %29.97 in5.6 miWest (280°)2.3 mphScattered Clouds
2:58 AM25.2 °F22.5 °F89 %30.07 in6.2 miNW (310°)2.3 mphPartly Cloudy
3:16 AM24.8 °F23.0 °F93 %29.98 in5.6 miWest (280°)3.5 mphScattered Clouds
3:19 AM24.8 °F23.0 °F93 %29.98 in5.6 miWest (280°)3.5 mphMostly Cloudy
3:46 AM24.8 °F23.0 °F93 %29.98 in5.0 miCalmSnowLight Snow
3:53 AM24.8 °F23.0 °F93 %29.99 in5.6 miNW (310°)3.5 mphSnowLight Snow
3:58 AM25.2 °F22.6 °F90 %30.09 in5.0 miNW (320°)3.5 mphSnowLight Snow
4:36 AM24.8 °F23.0 °F93 %29.99 in5.6 miWNW (300°)3.5 mphSnowLight Snow
4:50 AM24.8 °F23.0 °F93 %30.00 in5.6 miWNW (300°)2.3 mphSnowLight Snow
5:05 AM24.8 °F23.0 °F93 %30.00 in5.6 miNW (310°)2.3 mphOvercast
5:08 AM24.8 °F23.0 °F93 %30.00 in5.6 miWNW (290°)3.5 mphSnowLight Snow
5:27 AM24.8 °F23.0 °F93 %30.01 in5.0 miCalmOvercast
5:58 AM25.7 °F22.6 °F88 %30.12 in5.0 miCalm (330°)Overcast
6:07 AM24.8 °F23.0 °F93 %30.02 in5.6 miNW (310°)2.3 mphOvercast
6:58 AM25.5 °F22.8 °F89 %30.14 in3.7 miNW (320°)2.3 mphSnowLight Snow
7:28 AM24.8 °F23.0 °F93 %30.05 in2.5 miWNW (300°)2.3 mphSnowLight Snow
7:39 AM24.8 °F23.0 °F93 %30.05 in3.1 miNW (310°)1.2 mphSnowLight Snow
7:58 AM25.5 °F23.0 °F90 %30.16 in3.7 miNNW (330°)1.2 mphSnowLight Snow
8:11 AM24.8 °F23.0 °F93 %30.06 in3.1 miCalm (360°)Overcast
8:12 AM24.8 °F23.0 °F93 %30.06 in3.1 miNorth (360°)1.2 mphSnowLight Snow
8:18 AM24.8 °F23.0 °F93 %30.07 in2.5 miNNW (330°)1.2 mphSnowLight Snow
8:38 AM26.6 °F23.0 °F86 %30.08 in1.7 miVariable1.2 mphSnowLight Snow
8:58 AM26.1 °F23.5 °F90 %30.19 in1.7 miVariable1.2 mphSnowLight Snow
8:59 AM26.6 °F23.0 °F86 %30.09 inVariable1.2 mphSnowLight Snow
9:08 AM26.6 °F23.0 °F86 %30.09 inVariable2.3 mphSnowLight Snow
9:29 AM26.6 °F23.0 °F86 %30.10 in3.1 miNNW (330°)2.3 mphSnowLight Snow
9:47 AM26.6 °F23.0 °F86 %30.11 in3.7 miNNW (330°)3.5 mphOvercast
9:58 AM27.0 °F23.2 °F86 %30.21 in5.0 miNW (320°)3.5 mphOvercast
10:13 AM26.6 °F23.0 °F86 %30.12 in3.7 miVariable1.2 mphSnowLight Snow
10:22 AM28.4 °F23.0 °F80 %30.12 in3.7 miNW (320°)2.3 mphHaze
10:24 AM28.4 °F23.0 °F80 %30.12 in5.0 miVariable3.5 mphHaze
10:31 AM28.4 °F23.0 °F80 %30.12 in5.0 miNNW (330°)4.6 mphSnowLight Snow
10:36 AM28.4 °F23.0 °F80 %30.12 in5.0 miNW (310°)3.5 mphSnowLight Snow
10:44 AM28.4 °F23.0 °F80 %30.12 in5.6 miNW (320°)4.6 mphHaze
10:46 AM28.4 °F23.0 °F80 %30.12 in5.6 miVariable2.3 mphSnowLight Snow
10:51 AM28.4 °F23.0 °F80 %30.12 in6.2 miVariable3.5 mphHaze
10:58 AM28.2 °F23.2 °F81 %30.23 in6.2 miNW (310°)3.5 mphOvercast
11:18 AM28.4 °F23.0 °F80 %30.13 in6.2 miNW (320°)1.2 mphOvercast
11:19 AM28.4 °F23.0 °F80 %30.13 in6.2 miVariable1.2 mphOvercast
11:40 AM30.2 °F23.0 °F75 %30.13 in6.2 miVariable2.3 mphMostly Cloudy
11:58 AM29.5 °F22.8 °F76 %30.23 in6.2 miVariable3.5 mphMostly Cloudy
12:02 PM28.4 °F23.0 °F80 %30.13 in6.2 miNW (320°)4.6 mphScattered Clouds
12:11 PM28.4 °F23.0 °F80 %30.13 in6.2 miCalm (350°)Mostly Cloudy
12:35 PM30.2 °F23.0 °F75 %30.14 in6.2 miVariable2.3 mphOvercast
12:40 PM28.4 °F23.0 °F80 %30.14 in6.2 miVariable4.6 mphOvercast
12:58 PM28.9 °F23.0 °F78 %30.24 in6.2 miVariable3.5 mphOvercast
1:09 PM28.4 °F23.0 °F80 %30.15 in6.2 miNorth (360°)3.5 mphOvercast
1:15 PM28.4 °F23.0 °F80 %30.15 in6.2 miCalm (10°)Overcast
1:47 PM28.4 °F23.0 °F80 %30.16 in6.2 miVariable3.5 mphOvercast
1:49 PM28.4 °F23.0 °F80 %30.16 in6.2 miVariable2.3 mphOvercast
1:52 PM28.4 °F23.0 °F80 %30.16 in6.2 miVariable2.3 mphOvercast
1:58 PM29.3 °F22.8 °F77 %30.25 in6.2 miVariable2.3 mphOvercast
2:07 PM30.2 °F23.0 °F75 %30.16 in6.2 miNE (40°)4.6 mphOvercast
2:16 PM28.4 °F23.0 °F80 %30.16 in5.6 miVariable2.3 mphSnowLight Snow
2:45 PM28.4 °F23.0 °F80 %30.17 in5.0 miVariable2.3 mphSnowLight Snow
2:47 PM28.4 °F23.0 °F80 %30.17 in5.0 miVariable2.3 mphSnowLight Snow
2:53 PM28.4 °F23.0 °F80 %30.17 in5.6 miNE (40°)2.3 mphSnowLight Snow
2:55 PM28.4 °F23.0 °F80 %30.17 in6.2 miNNE (20°)2.3 mphSnowLight Snow
2:58 PM28.4 °F23.0 °F80 %30.27 in6.2 miCalmSnowLight Snow
3:08 PM28.4 °F23.0 °F80 %30.18 in6.2 miCalmSnowLight Snow
3:19 PM28.4 °F23.0 °F80 %30.18 in6.2 miNorth (360°)2.3 mphOvercast
3:45 PM28.4 °F23.0 °F80 %30.18 in6.2 miVariable1.2 mphOvercast
3:57 PM28.4 °F23.0 °F80 %30.19 in6.2 miVariable3.5 mphSnowLight Snow
3:58 PM29.1 °F23.4 °F79 %30.29 in6.2 miVariable3.5 mphSnowLight Snow
3:59 PM28.4 °F23.0 °F80 %30.19 in6.2 miVariable3.5 mphOvercast
4:00 PM28.4 °F23.0 °F80 %30.19 in6.2 miVariable2.3 mphSnowLight Snow
4:17 PM28.4 °F23.0 °F80 %30.19 in6.2 miVariable1.2 mphOvercast
4:21 PM28.4 °F23.0 °F80 %30.19 in6.2 miCalm (360°)Overcast
4:22 PM28.4 °F23.0 °F80 %30.19 in6.2 miVariable1.2 mphOvercast
4:23 PM28.4 °F23.0 °F80 %30.19 in6.2 miVariable1.2 mphOvercast
4:27 PM28.4 °F23.0 °F80 %30.19 in6.2 miCalmOvercast
4:37 PM28.4 °F23.0 °F80 %30.20 in6.2 miNorth (10°)1.2 mphOvercast
4:58 PM28.4 °F23.5 °F82 %30.30 in6.2 miVariable2.3 mphOvercast
5:02 PM28.4 °F23.0 °F80 %30.21 in6.2 miNorth (350°)3.5 mphOvercast
5:03 PM28.4 °F23.0 °F80 %30.21 in6.2 miVariable3.5 mphOvercast
5:16 PM28.4 °F24.8 °F86 %30.21 in6.2 miVariable3.5 mphOvercast
5:58 PM28.0 °F22.6 °F80 %30.32 in6.2 miVariable2.3 mphOvercast
6:16 PM28.4 °F23.0 °F80 %30.23 in6.2 miVariable1.2 mphOvercast
6:23 PM28.4 °F21.2 °F74 %30.23 in6.2 miNorth (350°)2.3 mphOvercast
6:58 PM27.7 °F22.5 °F81 %30.34 in6.2 miNorth (360°)2.3 mphOvercast
7:58 PM27.3 °F22.5 °F82 %30.34 in6.2 miVariable2.3 mphOvercast
8:58 PM27.1 °F22.6 °F83 %30.35 in6.2 miCalm (350°)Overcast
9:58 PM26.4 °F23.2 °F88 %30.36 in6.2 miCalmOvercast
10:58 PM26.2 °F23.0 °F88 %30.35 in6.2 miCalm (340°)Overcast
11:58 PM26.4 °F22.1 °F84 %30.35 in6.2 miCalmOvercast
Hourly data recorded from ETIH, located miles away from Regensberg, Germany







STORIES FROM OUR PARTNERS